Temp
66 73 69 70 56 52 48 57 63 64 66 71 74 69 65 65 61 53 71 74 76 75 74 73 72 73 74 74 75 75 75 76 76 76 76 74 72 73 73 72 72 72 74 72 72 72 73 75 75
66 77 72 63 51 43 51 58 61 65 67 74 74 71 66 62 71 70 70 76 77 76 72 73 72 73 74 74 74 74 75 75 75 75 74 73 73 74 74 73 71 71 72 72 71 72 71 70 70
70 75 62 55 48 46 51 61 62 68 72 72 66 70 67 65 73 72 75 77 76 73 71 72 72 72 73 73 73 73 73 73 73 74 74 72 73 73 74 72 70 71 71 72 73 71 70 69 68
72 67 63 52 46 56 61 64 67 69 73 72 68 62 69 74 72 75 78 78 73 68 68 70 71 72 73 73 73 73 73 72 72 73 73 73 73 73 73 72 71 71 72 72 72 70 69 69 69
68 62 53 50 51 61 66 69 70 68 63 65 65 59 63 75 78 77 76 78 72 68 69 69 70 71 72 73 72 72 72 72 72 72 72 73 72 72 71 70 70 71 71 70 69 71 70 69 68
61 61 49 49 53 63 67 68 70 69 70 66 63 62 63 77 76 77 78 75 77 73 70 71 71 71 71 71 71 71 71 71 71 71 71 71 71 71 71 71 70 71 70 69 68 68 69 69 68
58 55 51 53 56 60 65 69 66 66 67 65 66 58 61 69 75 77 76 77 75 74 72 68 70 71 70 70 70 70 70 70 70 70 69 69 68 68 69 69 69 69 70 70 69 69 69 69 68
65 58 53 53 55 53 64 66 65 68 61 71 67 59 57 69 76 75 76 74 75 73 73 69 68 69 67 67 69 69 69 69 69 69 69 66 67 67 67 67 68 69 68 69 69 68 69 69 68
67 54 47 53 58 56 63 62 66 69 67 68 70 68 69 72 76 70 71 72 71 74 71 70 69 70 67 68 69 69 69 69 68 68 68 65 65 64 64 66 67 68 68 68 68 67 67 67 66
63 51 54 61 62 58 62 64 65 66 65 63 67 71 72 75 72 71 70 69 69 68 67 68 68 68 70 76 67 67 68 66 66 67 65 65 63 62 64 65 66 66 66 65 65 65 65 64 60
60 54 63 65 68 66 64 66 69 61 59 64 64 67 70 70 71 70 69 70 68 68 68 67 67 67 67 68 67 66 66 65 65 65 64 63 62 61 61 60 61 59 62 59 60 60 59 59 58
60 67 68 65 68 67 63 64 67 60 62 74 71 70 70 70 70 71 68 68 67 67 66 66 66 67 65 65 64 64 65 64 63 64 63 61 59 59 59 58 58 58 58 58 61 57 56 56 58
64 66 69 71 71 67 70 66 65 65 72 73 74 74 68 69 69 69 72 69 67 68 66 64 65 65 66 64 63 63 61 61 61 61 63 61 59 59 59 58 58 58 59 59 57 57 56 56 57
67 69 67 69 69 70 66 65 62 68 68 71 73 68 66 67 69 65 68 68 68 70 66 64 64 65 65 63 62 61 60 61 60 60 61 62 59 58 58 58 58 57 57 56 55 54 55 56 58
70 61 65 67 67 64 63 60 59 71 70 69 69 69 69 69 69 69 69 67 68 67 66 65 65 64 64 62 62 60 60 61 59 60 61 61 60 59 57 56 55 55 56 56 54 54 53 53 55
63 59 52 65 67 67 64 52 63 68 68 65 67 67 68 69 71 68 70 69 68 66 65 66 71 64 63 61 61 61 60 59 59 59 59 61 61 60 58 56 55 56 55 55 54 52 51 51 51
58 48 55 61 67 63 61 55 65 69 68 64 64 65 65 65 67 69 69 68 66 66 65 64 64 62 62 61 60 59 59 58 58 58 58 60 61 61 57 55 56 56 54 54 54 52 51 50 50
49 51 57 52 60 62 58 57 62 67 64 62 60 60 61 63 64 70 67 66 64 64 64 64 63 63 62 60 59 58 58 59 57 57 58 60 59 60 57 55 55 56 54 52 53 52 52 51 50
58 55 52 56 64 59 56 56 61 60 62 61 60 61 62 65 67 67 65 64 63 62 64 64 62 61 60 58 56 56 55 57 56 58 59 59 58 60 58 55 55 55 54 53 53 52 51 50 50
58 54 51 57 63 60 56 57 59 63 62 62 61 61 63 63 65 67 65 61 62 62 62 62 62 61 60 58 57 57 56 56 57 58 57 58 58 58 58 56 55 55 53 54 53 51 49 49 50
54 52 51 51 57 60 55 53 58 61 64 65 65 64 64 64 63 65 66 62 60 60 61 62 62 61 59 60 58 56 55 55 56 56 55 56 58 58 58 56 54 54 52 51 51 51 50 47 49
50 59 57 55 49 43 55 40 53 57 59 62 64 60 60 61 64 64 63 60 59 60 60 63 63 62 61 58 57 56 55 55 56 56 56 56 57 57 58 58 56 54 52 51 50 53 49 48 45
54 60 56 55 50 45 50 44 50 56 55 58 58 60 60 61 61 63 60 61 61 60 58 60 61 62 62 59 56 56 54 54 56 56 56 54 54 56 57 55 53 52 50 51 49 48 48 47 46
62 56 55 53 49 35 48 46 44 53 56 59 60 60 60 60 60 61 61 63 62 60 58 57 58 60 60 60 59 56 56 58 54 53 52 52 52 52 52 53 50 49 49 50 49 49 48 46 46
56 47 31 31 31 31 52 46 48 58 60 60 58 58 59 59 58 59 58 61 60 59 59 58 58 58 59 58 57 57 57 57 56 53 50 49 49 49 50 51 50 50 50 50 50 49 47 46 45
51 48 31 27 25 31 48 40 50 61 64 65 64 60 59 61 61 59 58 59 58 58 58 59 60 60 60 57 56 56 56 56 58 54 50 47 47 48 50 49 49 50 50 50 50 49 46 44 45
51 41 51 38 28 27 37 48 58 60 62 63 62 62 60 59 60 57 58 58 57 57 57 55 56 58 58 55 54 51 50 50 47 47 47 47 49 51 49 48 48 48 48 48 47 44 43 43 44
54 56 38 34 26 26 37 40 43 52 56 59 56 57 57 57 58 58 57 56 57 56 55 55 56 56 56 52 50 49 48 48 48 49 48 48 48 49 48 47 46 46 47 47 46 44 44 42 42
48 43 46 49 38 30 27 34 52 55 56 56 61 60 58 58 57 57 58 58 55 54 54 54 55 55 52 49 47 47 47 47 47 48 48 47 47 48 47 47 46 47 46 47 45 44 43 42 42
55 51 52 35 34 33 30 37 59 55 58 63 58 59 58 58 57 58 56 54 54 54 53 55 55 51 51 46 46 46 46 45 45 46 46 46 45 47 47 46 47 46 46 45 43 42 41 41 40
MSLP
1011.32 1010.70 1010.93 1011.21 1012.25 1012.22 1011.94 1011.21 1009.58 1008.96 1008.63 1009.10 1009.09 1009.79 1011.94 1012.81 1013.86 1015.56 1015.32 1014.78 1014.64 1015.17 1015.73 1015.56 1015.73 1015.95 1015.97 1016.01 1016.15 1015.73 1015.72 1015.76 1015.49 1015.95 1016.03 1016.08 1016.54 1016.57 1016.60 1016.74 1017.17 1016.70 1015.96 1016.63 1018.25 1018.18 1019.25 1019.01 1018.98
1011.55 1010.79 1010.79 1011.64 1012.48 1012.89 1012.07 1011.02 1009.97 1009.33 1008.99 1009.17 1009.89 1010.79 1011.91 1013.55 1013.90 1014.75 1015.27 1015.15 1014.99 1015.36 1015.77 1015.83 1015.91 1016.04 1016.05 1016.21 1015.89 1015.93 1016.07 1016.00 1015.93 1016.06 1016.34 1016.28 1016.30 1016.44 1016.51 1016.76 1017.22 1016.57 1016.34 1017.29 1017.69 1018.24 1018.54 1018.83 1019.69
1011.48 1011.53 1012.41 1012.57 1012.73 1012.66 1011.52 1010.29 1009.87 1009.09 1008.78 1009.13 1010.92 1011.68 1012.52 1013.87 1014.05 1014.59 1014.93 1015.01 1015.16 1015.51 1015.67 1015.79 1016.06 1016.42 1016.24 1016.31 1016.12 1016.20 1016.17 1016.20 1016.14 1016.24 1016.25 1016.58 1016.52 1016.58 1016.92 1017.14 1017.45 1017.04 1017.07 1017.71 1018.11 1018.45 1017.98 1017.28 1018.93
1011.75 1011.89 1012.59 1012.80 1012.58 1011.52 1010.61 1009.93 1009.30 1009.12 1009.06 1010.28 1011.30 1013.08 1013.64 1013.85 1014.17 1014.52 1014.59 1014.63 1015.13 1015.78 1015.73 1015.98 1016.21 1016.22 1016.27 1016.28 1016.17 1016.22 1016.27 1016.51 1016.47 1016.61 1016.46 1016.68 1016.63 1016.63 1016.95 1017.14 1017.17 1017.32 1017.57 1018.04 1018.05 1018.36 1017.85 1017.42 1018.01
1011.93 1012.52 1012.95 1013.02 1012.07 1011.23 1010.58 1010.09 1009.54 1009.90 1011.13 1011.58 1011.82 1013.77 1013.69 1013.19 1014.00 1014.61 1014.68 1014.74 1014.98 1015.57 1015.91 1016.06 1016.33 1016.26 1016.33 1016.14 1016.29 1016.31 1016.47 1016.54 1016.85 1016.86 1016.85 1016.92 1016.76 1016.97 1017.01 1017.24 1017.16 1017.30 1017.72 1017.94 1018.19 1017.99 1017.94 1018.26 1018.39
1012.34 1012.63 1012.97 1013.33 1011.99 1011.13 1010.51 1010.26 1009.89 1010.40 1010.83 1011.99 1013.10 1013.77 1014.15 1013.56 1013.92 1014.12 1014.25 1014.54 1014.74 1015.10 1015.52 1015.80 1015.95 1015.95 1016.14 1016.26 1016.31 1016.55 1016.61 1016.71 1016.97 1017.36 1017.35 1017.38 1017.34 1017.50 1017.54 1017.55 1017.43 1017.52 1017.90 1017.96 1018.06 1018.14 1017.99 1017.79 1018.00
1012.08 1013.00 1013.00 1011.93 1011.69 1011.20 1010.55 1009.94 1010.65 1011.12 1011.31 1011.92 1013.02 1014.14 1014.59 1013.78 1013.61 1013.77 1014.28 1014.25 1014.54 1014.52 1015.04 1015.56 1015.64 1015.80 1015.97 1016.23 1016.42 1016.50 1016.70 1016.92 1017.01 1017.33 1017.64 1017.71 1017.75 1017.80 1017.88 1018.02 1017.92 1018.02 1018.03 1017.90 1017.87 1017.90 1018.14 1018.07 1017.89
1011.01 1012.26 1012.56 1011.66 1011.69 1011.49 1010.43 1010.22 1010.56 1011.05 1011.48 1011.92 1012.45 1013.68 1014.14 1013.41 1013.50 1013.67 1013.95 1014.04 1014.09 1014.60 1015.09 1015.77 1015.98 1015.87 1015.92 1016.11 1016.31 1016.48 1016.81 1017.18 1017.32 1017.39 1017.72 1017.84 1017.80 1017.93 1018.15 1018.19 1018.20 1018.20 1018.30 1018.06 1017.83 1017.73 1017.57 1017.72 1017.82
1009.90 1011.77 1012.23 1011.94 1011.66 1011.61 1010.83 1010.55 1010.71 1010.82 1011.30 1011.27 1011.81 1012.50 1012.76 1013.26 1013.63 1013.95 1014.21 1014.01 1014.44 1014.48 1014.78 1015.09 1015.63 1015.79 1015.84 1015.92 1016.06 1016.19 1016.56 1016.97 1017.25 1017.24 1017.52 1017.73 1017.80 1017.98 1018.25 1018.25 1018.35 1018.42 1018.47 1018.40 1018.20 1018.01 1017.74 1017.77 1017.84
1010.52 1011.78 1011.82 1011.82 1011.58 1011.70 1011.39 1011.01 1010.93 1011.07 1011.45 1011.70 1012.20 1012.44 1012.77 1013.12 1013.81 1014.07 1014.05 1014.05 1014.51 1014.79 1015.01 1015.28 1015.49 1015.78 1015.70 1015.79 1016.21 1016.18 1016.54 1016.76 1016.89 1016.93 1017.15 1017.32 1017.44 1017.59 1017.93 1018.04 1018.17 1018.25 1018.24 1018.25 1018.19 1018.17 1018.25 1018.25 1018.19
1010.93 1011.53 1011.78 1011.77 1011.53 1011.47 1011.40 1011.46 1011.27 1011.32 1011.61 1012.07 1012.45 1012.77 1012.84 1013.04 1013.52 1013.67 1013.96 1014.09 1014.60 1014.92 1015.07 1015.46 1015.91 1015.89 1016.00 1015.98 1016.05 1016.34 1016.41 1016.73 1016.93 1017.02 1017.30 1017.44 1017.55 1017.57 1017.85 1018.17 1018.27 1018.59 1018.77 1019.05 1019.07 1018.88 1018.65 1018.58 1018.49
1011.36 1011.15 1011.35 1011.51 1011.54 1011.67 1011.83 1011.62 1011.53 1011.41 1011.57 1011.37 1011.66 1012.32 1012.57 1012.86 1013.15 1013.34 1013.54 1014.23 1014.49 1014.87 1015.14 1015.46 1015.70 1015.91 1016.03 1016.17 1016.25 1016.32 1016.41 1016.59 1016.89 1016.89 1017.17 1017.45 1017.72 1017.81 1018.02 1018.17 1018.30 1018.36 1018.31 1018.35 1018.41 1019.03 1019.20 1018.97 1018.58
1011.02 1011.14 1011.22 1011.18 1011.37 1011.58 1011.48 1011.69 1011.74 1011.47 1011.15 1011.31 1011.42 1011.99 1012.52 1012.82 1012.94 1013.16 1013.31 1013.98 1014.35 1014.81 1015.33 1015.56 1015.75 1016.06 1015.94 1016.29 1016.44 1016.56 1016.85 1016.96 1017.03 1017.01 1017.01 1017.31 1017.62 1017.75 1017.83 1017.98 1018.21 1018.38 1018.42 1018.49 1018.67 1018.66 1018.62 1018.79 1018.90
1011.16 1011.05 1011.10 1011.12 1011.16 1011.04 1011.28 1011.50 1011.59 1011.01 1010.90 1011.31 1011.48 1011.99 1012.47 1012.84 1012.85 1013.31 1013.44 1013.78 1014.03 1014.45 1015.05 1015.32 1015.61 1015.72 1015.85 1016.32 1016.34 1016.62 1016.87 1016.84 1016.97 1017.13 1017.20 1017.36 1017.69 1017.95 1017.95 1018.05 1018.12 1018.32 1018.43 1018.54 1018.64 1018.67 1018.60 1018.41 1018.24
1011.13 1011.45 1011.46 1011.21 1010.87 1010.98 1011.02 1011.60 1011.31 1010.38 1010.86 1011.24 1011.55 1011.77 1012.10 1012.48 1012.62 1012.92 1013.23 1013.62 1013.83 1014.30 1014.80 1015.21 1015.59 1015.93 1016.15 1016.46 1016.46 1016.63 1016.73 1016.77 1017.07 1017.15 1017.17 1017.37 1017.53 1017.65 1017.85 1017.99 1018.29 1018.39 1018.41 1018.58 1018.83 1018.85 1018.71 1018.64 1018.29
1011.66 1011.74 1011.86 1010.87 1010.94 1011.03 1011.18 1011.50 1011.01 1010.53 1010.99 1011.27 1011.33 1011.66 1011.83 1012.07 1012.08 1012.43 1012.55 1012.91 1013.36 1014.07 1014.74 1015.00 1015.32 1015.92 1016.22 1016.49 1016.41 1016.56 1016.65 1016.66 1016.89 1017.03 1017.15 1017.26 1017.44 1017.56 1017.70 1017.93 1018.05 1017.83 1018.03 1018.28 1018.52 1018.84 1018.82 1018.78 1018.53
1012.73 1012.71 1012.13 1011.26 1011.04 1011.16 1011.44 1011.57 1010.83 1010.23 1010.77 1011.07 1011.07 1011.41 1011.85 1012.01 1012.17 1012.16 1012.26 1012.63 1013.34 1013.84 1014.49 1014.96 1015.34 1015.93 1016.29 1016.35 1016.51 1016.61 1016.66 1016.68 1016.75 1016.84 1016.96 1016.99 1017.07 1017.14 1017.45 1017.77 1017.82 1017.72 1017.97 1018.06 1018.19 1018.34 1018.45 1018.55 1018.41
1013.61 1013.45 1012.74 1012.50 1011.84 1011.53 1011.48 1011.39 1011.01 1010.22 1010.37 1011.28 1011.32 1011.90 1012.37 1012.51 1012.67 1012.11 1012.28 1012.97 1013.62 1014.05 1014.50 1015.01 1015.48 1015.76 1016.13 1016.35 1016.52 1016.74 1016.81 1016.56 1016.57 1016.65 1016.58 1016.54 1016.82 1016.95 1017.17 1017.55 1017.50 1017.49 1017.81 1017.93 1017.88 1017.95 1018.01 1018.05 1017.94
1013.80 1013.71 1013.45 1012.73 1012.23 1012.11 1011.80 1011.50 1010.99 1010.82 1010.79 1011.32 1012.14 1012.30 1012.44 1012.64 1012.57 1012.51 1013.08 1013.55 1014.12 1014.60 1014.91 1015.28 1015.74 1016.00 1016.11 1016.41 1016.81 1016.91 1017.03 1016.65 1016.56 1016.36 1016.20 1016.39 1016.56 1016.68 1016.84 1017.17 1017.37 1017.37 1017.54 1017.63 1017.69 1017.77 1017.85 1017.72 1017.49
1013.87 1014.02 1013.92 1013.24 1012.89 1012.83 1011.99 1011.23 1010.28 1010.51 1010.96 1011.17 1011.84 1012.15 1012.43 1012.76 1012.94 1013.38 1013.83 1014.12 1014.51 1014.94 1015.20 1015.39 1015.53 1015.65 1015.85 1016.01 1016.06 1016.16 1016.21 1016.12 1015.95 1015.75 1015.80 1015.91 1016.07 1016.18 1016.41 1016.63 1016.97 1016.99 1017.10 1017.19 1017.39 1017.65 1017.92 1017.84 1017.33
1014.40 1014.59 1014.57 1014.54 1013.64 1012.55 1012.22 1011.72 1010.95 1011.02 1010.96 1011.29 1011.70 1012.21 1012.58 1012.73 1012.95 1013.18 1013.60 1014.17 1014.46 1014.72 1014.84 1015.03 1015.08 1015.16 1015.33 1015.34 1015.49 1015.67 1015.76 1015.78 1015.81 1015.66 1015.70 1015.65 1015.37 1015.50 1015.73 1016.10 1016.48 1016.71 1016.87 1017.09 1017.26 1017.41 1017.70 1018.09 1017.72
1014.72 1014.49 1014.63 1014.79 1015.05 1014.25 1013.25 1013.39 1011.88 1011.53 1011.52 1011.64 1012.03 1012.58 1012.81 1013.12 1013.03 1013.33 1013.41 1013.83 1014.26 1014.16 1014.36 1014.39 1014.47 1014.54 1014.59 1014.83 1015.11 1015.37 1015.38 1015.47 1015.10 1014.95 1014.88 1015.07 1014.93 1015.06 1015.26 1015.50 1015.97 1016.38 1016.69 1016.88 1017.18 1017.15 1017.50 1017.82 1018.11
1014.92 1014.69 1014.91 1014.84 1015.16 1015.19 1013.82 1013.72 1012.51 1011.53 1011.85 1012.12 1012.41 1012.80 1013.06 1013.20 1013.33 1013.22 1013.34 1013.45 1013.60 1013.84 1014.12 1014.15 1014.13 1014.11 1013.93 1014.11 1014.40 1014.77 1014.77 1014.62 1014.33 1014.48 1014.69 1014.83 1014.78 1014.83 1015.13 1015.58 1016.04 1016.44 1016.74 1016.97 1017.47 1017.37 1017.48 1017.67 1017.85
1014.89 1015.19 1014.87 1014.65 1015.59 1016.28 1015.76 1014.67 1013.08 1012.08 1011.63 1012.08 1012.76 1013.12 1013.19 1013.17 1013.25 1013.35 1013.34 1013.40 1013.68 1013.83 1014.07 1014.17 1014.23 1014.03 1013.65 1013.55 1013.45 1013.65 1013.66 1013.68 1013.77 1013.95 1014.33 1014.58 1015.04 1015.40 1015.58 1015.61 1016.06 1016.31 1016.52 1016.92 1017.32 1017.25 1017.58 1017.62 1017.78
1015.73 1016.37 1017.14 1017.74 1017.83 1017.85 1016.36 1015.41 1013.42 1012.17 1011.61 1012.27 1012.98 1013.08 1012.87 1013.02 1013.24 1013.05 1013.13 1013.62 1013.94 1014.20 1014.07 1014.18 1014.22 1014.11 1013.64 1013.40 1013.17 1012.80 1012.58 1012.50 1012.63 1012.78 1013.20 1014.01 1014.68 1015.21 1015.60 1016.02 1016.32 1016.53 1016.41 1016.29 1016.76 1017.44 1017.69 1017.51 1017.58
1016.62 1017.31 1018.87 1020.13 1020.63 1019.84 1017.36 1015.83 1013.58 1012.37 1012.43 1012.57 1012.45 1013.03 1013.19 1013.00 1013.15 1013.30 1013.42 1013.83 1013.99 1014.15 1013.99 1014.03 1014.07 1013.91 1013.38 1013.05 1012.92 1012.39 1012.18 1012.14 1011.80 1012.03 1012.77 1013.47 1014.07 1014.66 1015.29 1015.60 1015.84 1016.39 1016.58 1016.64 1017.30 1017.83 1017.33 1017.18 1016.99
1017.31 1018.04 1018.91 1020.41 1021.45 1021.06 1018.76 1016.08 1013.87 1012.82 1012.90 1012.82 1013.15 1013.30 1013.36 1013.46 1013.32 1013.57 1013.79 1014.01 1014.21 1014.16 1014.18 1014.30 1014.21 1013.89 1013.30 1012.95 1012.63 1012.52 1012.26 1012.46 1012.69 1013.01 1013.57 1014.05 1014.50 1014.94 1015.26 1015.63 1016.28 1016.63 1016.74 1017.45 1017.17 1017.04 1016.86 1016.68 1016.40
1017.40 1018.24 1019.37 1020.75 1022.15 1021.62 1019.25 1017.13 1015.43 1013.95 1013.41 1013.36 1013.23 1013.16 1013.32 1013.60 1013.77 1013.97 1014.49 1014.41 1014.26 1014.25 1014.27 1014.16 1014.12 1013.74 1012.96 1012.84 1012.81 1013.00 1012.97 1013.24 1013.62 1013.94 1014.19 1014.45 1014.85 1015.05 1015.61 1016.17 1016.94 1017.38 1017.01 1016.84 1016.61 1016.50 1016.23 1016.05 1015.76
1018.17 1018.74 1019.78 1020.99 1022.00 1021.81 1020.28 1017.94 1014.86 1014.30 1013.98 1013.74 1013.19 1013.38 1013.62 1014.36 1014.32 1014.42 1014.45 1014.87 1015.04 1014.93 1014.79 1014.66 1014.17 1013.54 1013.17 1013.12 1013.22 1013.18 1013.34 1013.58 1013.85 1014.28 1014.54 1014.60 1015.03 1015.46 1015.99 1016.17 1016.48 1016.54 1016.35 1016.17 1016.08 1015.92 1015.67 1015.55 1015.29
1018.50 1019.52 1020.20 1021.51 1022.23 1021.78 1020.61 1017.47 1015.17 1014.55 1013.89 1013.49 1013.88 1014.52 1014.73 1014.90 1014.77 1015.03 1015.31 1015.24 1015.10 1014.87 1014.63 1014.33 1013.99 1013.56 1013.24 1013.36 1013.26 1013.36 1013.50 1013.72 1014.09 1014.56 1014.83 1014.88 1015.34 1015.68 1015.83 1015.90 1015.97 1015.81 1015.76 1015.68 1015.64 1015.50 1015.24 1015.12 1015.00
Wind_Speed
8 8 2 4 6 6 4 5 4 12 7 7 13 18 14 7 6 5 2 5 7 10 6 8 10 9 9 10 11 14 14 15 14 10 10 17 18 18 18 17 14 11 16 5 6 6 17 11 13
6 7 5 2 5 3 5 2 11 5 2 9 15 12 9 14 9 11 5 6 6 10 7 7 10 11 11 10 12 13 14 15 14 14 15 16 17 17 17 16 13 13 11 6 3 10 4 15 16
3 1 4 4 2 2 3 5 3 4 3 2 7 8 4 3 8 4 8 9 8 9 8 9 11 9 9 10 12 13 13 13 13 12 14 13 12 12 11 7 9 7 4 5 8 9 9 12 5
3 5 5 4 3 4 6 4 2 3 3 17 10 8 5 8 4 7 10 9 9 8 8 9 10 10 9 11 12 12 12 11 12 12 12 10 10 8 8 7 9 8 7 6 6 8 6 14 20
2 2 2 3 3 6 8 7 7 9 8 9 5 3 6 6 8 5 7 8 10 10 8 7 11 10 9 10 9 10 10 10 10 11 10 8 8 7 5 6 10 10 7 9 9 9 11 13 13
4 3 4 4 4 6 8 8 8 8 10 7 9 6 3 7 8 8 6 8 10 12 9 8 11 11 9 8 8 7 8 9 10 10 10 8 10 8 8 9 8 5 6 5 6 10 9 5 8
5 4 6 7 8 6 4 6 6 8 10 6 11 4 1 2 8 6 7 9 9 9 10 7 7 9 10 8 7 6 5 7 7 9 10 9 10 10 13 11 10 10 9 7 5 6 8 7 10
5 6 4 5 6 3 2 3 3 8 1 7 7 6 5 7 10 4 5 6 7 8 9 6 5 5 6 6 8 8 6 7 7 8 9 10 9 9 11 9 8 7 9 9 8 7 8 6 6
2 5 3 6 8 4 3 7 3 1 2 2 5 8 6 4 7 2 4 4 6 7 7 7 7 6 6 6 7 9 9 10 9 8 10 10 4 5 6 8 7 6 6 7 5 3 5 5 2
7 5 5 4 5 5 6 7 2 5 6 1 5 8 9 10 6 8 8 6 5 6 7 7 5 4 3 1 5 6 6 4 5 5 6 4 5 5 6 6 6 5 3 3 4 4 4 4 2
4 4 4 5 8 7 7 7 5 0 3 5 5 7 10 7 9 9 4 9 8 7 6 7 6 3 5 3 3 2 3 4 3 6 5 5 4 3 3 3 3 3 4 2 2 4 4 4 3
6 6 5 4 4 4 4 5 7 3 3 7 7 10 6 7 7 7 1 7 8 7 7 7 6 3 3 4 4 3 3 4 3 4 6 4 3 3 3 3 2 1 1 3 3 2 3 3 5
4 4 1 7 7 7 3 7 6 6 8 6 5 6 3 6 5 4 7 7 7 8 6 7 7 4 1 4 3 3 4 3 3 3 3 3 4 4 3 3 3 3 2 1 2 2 3 4 4
3 5 2 6 6 6 5 6 2 10 6 8 8 7 6 5 4 3 5 6 6 6 8 8 7 6 4 3 4 3 3 2 3 3 2 4 4 3 3 3 4 3 3 2 1 2 3 3 3
6 5 7 6 8 4 3 9 6 16 8 9 10 9 9 9 8 8 9 7 7 4 7 8 6 5 4 4 4 3 3 3 3 3 4 4 3 2 3 3 3 2 2 4 2 2 2 3 3
3 2 2 10 8 5 8 9 7 8 10 11 10 9 9 10 10 9 9 10 8 9 9 7 5 6 3 3 3 3 5 4 4 4 4 3 2 2 1 3 2 1 1 3 1 1 1 2 3
7 4 7 8 7 3 5 7 10 11 9 10 10 9 8 8 7 9 9 9 9 9 9 6 6 5 2 1 2 2 5 3 3 4 4 6 4 2 1 4 3 2 2 2 1 1 0 2 4
6 7 7 4 4 6 7 7 8 9 4 7 5 3 4 5 2 8 6 8 9 8 8 7 5 5 3 1 1 1 1 3 1 5 5 7 5 5 2 3 4 4 2 2 1 1 1 1 3
6 7 5 5 10 10 8 10 12 1 9 11 9 8 8 8 6 10 9 8 9 7 7 5 4 3 2 2 1 2 3 4 3 5 7 7 6 7 5 4 4 4 3 4 3 2 3 2 2
7 6 6 5 11 8 11 16 8 7 6 8 9 8 9 8 9 7 7 5 4 6 5 4 6 6 5 3 4 4 4 5 4 4 5 8 8 8 7 6 5 4 3 1 1 1 1 2 2
5 5 6 7 10 11 4 10 7 4 8 8 7 6 6 8 6 5 5 7 7 7 8 8 8 8 7 9 4 3 2 2 2 2 2 6 8 8 8 7 5 5 3 3 2 2 1 2 3
5 7 9 11 7 4 5 6 5 6 7 7 7 7 8 6 6 5 5 4 7 9 8 8 8 8 7 8 5 8 5 6 5 5 4 5 6 7 7 7 5 4 2 3 1 4 1 0 3
8 5 13 15 9 2 8 3 6 6 4 6 7 7 7 7 6 5 2 2 4 3 8 8 8 8 8 7 8 7 7 5 4 3 3 3 3 5 2 5 6 6 4 5 6 5 6 2 2
7 8 12 5 4 4 7 5 6 3 4 5 6 6 7 6 5 5 4 6 3 1 3 6 8 9 8 8 9 10 13 12 6 5 5 5 4 4 6 7 6 6 5 5 3 4 6 5 5
13 7 6 8 6 5 12 6 9 9 6 9 8 6 6 5 4 2 3 3 5 7 6 3 6 9 9 9 10 11 12 13 13 9 7 8 5 4 5 5 4 3 4 5 7 5 6 6 5
6 3 5 2 1 6 9 3 6 9 11 6 5 5 7 8 4 3 2 3 5 6 6 8 10 10 10 6 9 8 10 8 10 5 4 5 5 5 6 5 7 6 6 7 10 10 7 7 8
7 5 2 2 2 4 5 7 10 7 11 9 12 6 6 5 2 3 5 6 5 6 7 6 8 9 10 6 4 7 5 5 6 9 7 5 5 6 7 7 6 9 11 10 10 5 7 7 8
4 0 6 4 2 4 5 6 7 10 15 10 2 6 6 2 6 6 6 3 5 7 6 9 9 10 8 3 6 6 7 8 7 6 7 7 7 9 10 11 10 10 12 7 7 8 8 8 6
2 4 2 2 1 3 3 7 5 13 9 12 16 10 9 6 7 6 5 6 6 6 7 7 10 10 7 4 5 7 6 7 7 6 5 6 7 6 5 4 9 8 7 9 9 8 9 9 9
6 7 6 4 6 5 4 9 13 9 9 22 11 6 6 6 5 8 9 6 6 6 6 8 10 7 5 7 6 6 7 7 7 6 6 6 6 4 5 4 6 7 7 6 6 8 8 9 10
Wind_Direction
315 301 185 16 45 59 292 324 124 27 34 35 73 82 92 86 60 112 197 91 71 108 105 83 76 68 62 53 59 62 61 63 66 72 117 119 129 131 135 138 152 132 138 133 295 303 320 314 303
327 320 30 30 82 50 288 84 63 63 72 87 86 88 64 85 88 121 118 121 125 111 106 91 73 60 59 61 65 65 66 65 67 80 108 128 144 157 161 168 160 142 161 167 142 43 157 52 332
315 263 67 119 137 231 114 42 88 125 71 8 95 52 67 357 51 94 150 146 124 109 97 82 75 79 84 82 84 76 71 63 68 78 109 133 154 177 187 167 145 153 146 166 190 81 95 96 338
348 6 6 79 94 0 75 15 313 101 35 33 98 56 74 26 77 143 143 155 107 108 99 109 102 87 76 73 78 85 81 78 76 80 91 125 169 186 202 185 176 191 166 235 178 178 164 163 169
99 18 23 355 90 55 25 6 329 58 106 76 93 170 132 112 85 119 163 147 132 124 128 119 123 114 101 94 80 82 86 87 87 85 90 109 161 165 174 186 188 193 189 164 186 204 192 188 211
3 110 8 217 93 65 33 13 21 25 87 143 69 122 117 124 134 218 175 152 146 138 142 146 134 125 114 103 93 78 77 77 80 89 94 88 88 88 89 86 85 132 180 186 199 200 216 263 227
152 90 240 159 128 72 80 35 26 65 44 35 135 92 301 275 189 205 178 116 145 151 142 154 145 137 123 114 109 98 89 87 84 91 98 94 102 96 93 92 93 108 106 108 144 186 208 200 214
156 121 263 49 100 128 101 52 78 73 65 116 139 156 206 215 188 199 83 146 131 96 120 138 143 140 143 143 145 133 128 119 120 111 113 113 118 121 114 105 107 111 112 109 112 127 156 176 180
15 52 28 31 67 17 300 73 23 176 102 154 115 142 186 125 137 192 193 221 122 104 89 82 113 156 170 158 169 143 141 137 142 145 144 147 151 126 104 114 102 97 111 101 84 87 140 165 206
62 75 40 75 59 19 2 37 134 47 359 327 83 91 147 142 168 210 216 193 129 102 101 102 71 47 358 160 160 145 157 162 169 165 154 157 134 134 152 137 132 125 84 60 67 25 9 353 331
24 66 27 38 42 17 351 17 346 168 347 102 109 158 156 161 182 208 230 140 143 139 104 102 101 66 25 16 135 130 141 147 133 117 123 128 107 110 130 133 111 117 72 357 14 348 336 321 318
76 49 54 26 50 350 343 337 321 327 254 141 105 160 158 167 198 189 191 152 151 133 137 126 112 95 49 56 74 89 130 108 124 129 128 130 128 135 115 115 133 168 222 207 192 226 255 269 281
76 151 190 164 188 214 225 265 242 239 244 127 113 106 142 178 196 191 123 107 107 113 139 140 132 130 140 96 91 73 62 78 82 91 90 93 146 156 149 169 164 166 196 213 327 267 235 240 247
309 289 215 215 232 216 204 246 226 258 228 151 145 165 196 246 216 144 129 133 133 137 149 152 146 168 184 159 137 125 106 108 92 100 87 75 118 88 141 155 184 131 117 85 44 356 344 314 258
285 263 283 243 238 201 99 320 271 240 163 168 181 187 195 214 214 202 189 181 167 186 142 136 147 182 177 159 145 147 181 153 131 121 94 78 111 129 121 128 100 161 164 165 174 280 316 324 316
271 354 46 241 198 210 109 276 287 258 170 199 197 198 195 213 213 209 195 179 182 133 136 150 133 148 156 160 178 175 188 169 170 158 153 139 139 186 188 130 126 2 3 147 109 1 302 292 287
28 345 351 327 148 171 178 269 278 294 204 216 203 199 203 216 235 225 204 178 145 130 135 129 115 127 191 192 204 272 205 199 203 166 166 173 184 238 155 154 171 182 222 151 126 354 64 310 305
315 330 307 3 305 346 326 287 298 277 309 48 110 59 85 105 333 251 187 121 112 112 111 116 139 162 176 173 283 40 260 263 219 196 188 179 182 203 211 197 198 194 181 154 165 194 287 239 293
347 314 318 318 344 358 305 278 273 317 69 75 87 88 76 67 44 48 80 100 98 97 102 113 130 217 168 170 184 246 235 253 247 233 187 189 181 193 207 193 209 216 160 182 203 203 222 298 284
358 326 344 322 335 323 304 298 229 128 113 113 106 90 87 63 50 76 100 100 121 138 146 177 212 213 210 184 208 188 197 228 217 227 194 195 182 196 197 209 217 182 164 156 337 214 293 288 291
351 34 346 313 318 306 13 328 105 73 102 100 115 132 126 134 129 108 110 144 162 172 190 194 216 224 215 214 203 232 277 296 238 230 209 214 196 198 193 197 198 193 161 183 186 228 255 287 309
332 347 330 305 335 295 77 277 260 146 158 150 162 145 139 130 110 86 152 178 181 215 200 205 217 227 230 213 213 209 211 218 222 208 206 218 232 206 202 198 188 170 147 91 27 66 94 66 295
247 302 281 278 253 295 315 83 289 134 179 186 167 134 127 107 101 81 56 135 230 173 202 212 222 235 241 220 204 216 227 220 218 233 225 250 238 184 190 95 83 82 68 56 38 17 18 350 350
306 340 309 326 125 51 335 51 295 323 158 134 93 117 113 109 87 66 68 88 76 74 222 234 236 247 248 239 229 208 219 225 193 186 164 139 113 80 69 88 92 104 99 60 32 20 352 330 298
10 14 354 8 13 218 9 346 241 317 110 114 110 121 132 110 114 110 19 353 21 27 18 295 246 259 260 253 247 238 226 221 211 192 172 154 147 134 126 102 65 38 48 55 21 342 287 281 277
309 56 123 296 315 285 314 258 289 22 79 94 152 87 77 36 3 347 184 104 85 43 357 353 348 323 301 292 270 259 248 234 227 184 125 109 117 125 124 99 75 58 30 27 335 295 267 265 260
320 36 224 131 7 58 268 306 338 101 18 7 79 89 72 1 41 299 104 108 70 29 19 4 343 319 296 327 349 20 28 62 88 88 101 100 90 99 80 66 57 16 357 306 258 253 259 255 260
172 286 24 360 349 288 287 303 230 338 341 343 309 208 147 359 17 44 54 63 25 38 13 2 342 303 282 110 107 93 88 81 79 84 95 97 85 66 50 31 4 305 267 253 265 265 265 261 261
37 349 18 17 292 213 288 267 304 317 309 336 330 58 60 58 56 43 9 39 43 18 2 328 327 312 300 123 122 102 102 103 99 93 88 79 73 80 134 205 241 246 258 261 262 262 266 265 269
64 1 348 131 274 230 209 262 270 276 311 305 354 60 41 48 33 20 45 32 4 345 338 334 324 318 314 140 127 113 114 112 106 96 84 77 78 22 291 251 245 253 257 262 265 272 282 275 272